Tiempo cada hora Abrikosovyy

Hoy, 29 Octubre, Jueves

Tiempo Temperatura Precipitaciones Viento Presión Humedad
00:00 +8°C° 0 mm 7 mps 761 mmHg 63%
01:00 +8°C° 0 mm 6 mps 760 mmHg 64%
02:00 +7°C° 0 mm 6 mps 760 mmHg 66%
03:00 +7°C° 0 mm 6 mps 760 mmHg 67%
04:00 +7°C° 0 mm 6 mps 760 mmHg 66%
05:00 +7°C° 0 mm 6 mps 760 mmHg 65%
06:00 +7°C° 0 mm 6 mps 759 mmHg 64%
07:00 +8°C° 0.1 mm 7 mps 759 mmHg 63%
08:00 +9°C° 0.1 mm 7 mps 759 mmHg 62%
09:00 +9°C° 0.1 mm 7 mps 759 mmHg 61%
10:00 +11°C° 0.1 mm 7 mps 759 mmHg 61%
11:00 +14°C° 0.1 mm 7 mps 758 mmHg 60%
12:00 +16°C° 0.1 mm 7 mps 758 mmHg 60%
13:00 +16°C° 0 mm 7 mps 758 mmHg 59%
14:00 +17°C° 0 mm 6 mps 757 mmHg 58%
15:00 +19°C° 0 mm 6 mps 757 mmHg 58%
16:00 +17°C° 0 mm 6 mps 757 mmHg 63%
17:00 +16°C° 0 mm 5 mps 757 mmHg 69%
18:00 +14°C° 0 mm 4 mps 757 mmHg 75%
19:00 +14°C° 0 mm 5 mps 757 mmHg 77%
20:00 +14°C° 0 mm 5 mps 756 mmHg 79%
21:00 +13°C° 0 mm 5 mps 756 mmHg 80%
22:00 +13°C° 0 mm 5 mps 756 mmHg 82%
23:00 +13°C° 0 mm 5 mps 756 mmHg 84%

Mañana, 30 Octubre, Viernes

Tiempo Temperatura Precipitaciones Viento Presión Humedad
00:00 +12°C° 0 mm 5 mps 755 mmHg 86%
01:00 +12°C° 0.1 mm 5 mps 755 mmHg 87%
02:00 +12°C° 0.1 mm 4 mps 756 mmHg 88%
03:00 +12°C° 0.1 mm 3 mps 756 mmHg 89%
04:00 +12°C° 0.1 mm 3 mps 756 mmHg 89%
05:00 +12°C° 0.1 mm 4 mps 756 mmHg 90%
06:00 +13°C° 0.1 mm 4 mps 756 mmHg 90%
07:00 +13°C° 0.2 mm 4 mps 756 mmHg 89%
08:00 +13°C° 0.2 mm 4 mps 756 mmHg 89%
09:00 +13°C° 0.2 mm 4 mps 756 mmHg 88%
10:00 +14°C° 0.3 mm 4 mps 756 mmHg 85%
11:00 +15°C° 0.3 mm 4 mps 756 mmHg 82%
12:00 +17°C° 0.3 mm 3 mps 756 mmHg 80%
13:00 +18°C° 0.2 mm 3 mps 755 mmHg 74%
14:00 +19°C° 0.2 mm 3 mps 755 mmHg 68%
15:00 +20°C° 0.2 mm 2 mps 755 mmHg 63%
16:00 +19°C° 0.3 mm 2 mps 755 mmHg 68%
17:00 +18°C° 0.3 mm 2 mps 755 mmHg 73%
18:00 +17°C° 0.3 mm 2 mps 755 mmHg 78%
19:00 +16°C° 0 mm 2 mps 755 mmHg 80%
20:00 +16°C° 0 mm 2 mps 755 mmHg 82%
21:00 +14°C° 0 mm 3 mps 755 mmHg 83%
22:00 +15°C° 0 mm 2 mps 755 mmHg 84%
23:00 +15°C° 0 mm 2 mps 755 mmHg 86%

Pasado mañana, 31 Octubre, Sábado

Tiempo Temperatura Precipitaciones Viento Presión Humedad
00:00 +14°C° 0 mm 2 mps 755 mmHg 87%
01:00 +14°C° 0 mm 2 mps 755 mmHg 88%
02:00 +14°C° 0 mm 2 mps 755 mmHg 89%
03:00 +14°C° 0 mm 2 mps 755 mmHg 90%
04:00 +13°C° 0 mm 1 mps 755 mmHg 90%
05:00 +13°C° 0 mm 1 mps 755 mmHg 91%
06:00 +12°C° 0 mm 0 mps 755 mmHg 91%
07:00 +14°C° 0 mm 1 mps 755 mmHg 88%
08:00 +14°C° 0 mm 1 mps 755 mmHg 84%
09:00 +15°C° 0 mm 1 mps 755 mmHg 80%
10:00 +17°C° 0 mm 2 mps 755 mmHg 75%
11:00 +18°C° 0 mm 2 mps 755 mmHg 69%
12:00 +19°C° 0 mm 2 mps 755 mmHg 64%
13:00 +19°C° 0.2 mm 3 mps 754 mmHg 68%
14:00 +18°C° 0.2 mm 3 mps 754 mmHg 71%
15:00 +17°C° 0.2 mm 3 mps 754 mmHg 75%
16:00 +17°C° 0.4 mm 3 mps 754 mmHg 77%
17:00 +16°C° 0.4 mm 3 mps 754 mmHg 80%
18:00 +16°C° 0.4 mm 2 mps 755 mmHg 83%
19:00 +16°C° 0.1 mm 3 mps 755 mmHg 80%
20:00 +17°C° 0.1 mm 4 mps 755 mmHg 77%
21:00 +16°C° 0.1 mm 5 mps 755 mmHg 74%
22:00 +15°C° 0.1 mm 5 mps 755 mmHg 76%
23:00 +15°C° 0.1 mm 5 mps 755 mmHg 77%

1 Noviembre, Domingo

Tiempo Temperatura Precipitaciones Viento Presión Humedad
00:00 +15°C° 0.1 mm 5 mps 755 mmHg 79%
01:00 +14°C° 0 mm 4 mps 755 mmHg 80%
02:00 +14°C° 0 mm 4 mps 755 mmHg 82%
03:00 +13°C° 0 mm 3 mps 755 mmHg 84%
04:00 +13°C° 0.2 mm 3 mps 755 mmHg 86%
05:00 +13°C° 0.2 mm 3 mps 756 mmHg 87%
06:00 +13°C° 0.2 mm 3 mps 756 mmHg 89%
07:00 +13°C° 0 mm 3 mps 756 mmHg 87%
08:00 +15°C° 0 mm 2 mps 757 mmHg 85%
09:00 +15°C° 0 mm 2 mps 757 mmHg 83%
10:00 +15°C° 1.2 mm 2 mps 757 mmHg 85%
11:00 +14°C° 1.2 mm 2 mps 758 mmHg 87%
12:00 +14°C° 1.2 mm 2 mps 758 mmHg 89%
13:00 +14°C° 0.2 mm 2 mps 758 mmHg 86%
14:00 +15°C° 0.2 mm 1 mps 759 mmHg 82%
15:00 +15°C° 0.2 mm 1 mps 759 mmHg 78%
16:00 +14°C° 0 mm 1 mps 759 mmHg 81%
17:00 +14°C° 0 mm 1 mps 759 mmHg 84%
18:00 +13°C° 0 mm 1 mps 760 mmHg 88%
19:00 +13°C° 0 mm 1 mps 760 mmHg 89%
20:00 +12°C° 0 mm 1 mps 760 mmHg 90%
21:00 +12°C° 0 mm 1 mps 760 mmHg 91%
22:00 +12°C° 0 mm 1 mps 761 mmHg 91%
23:00 +12°C° 0 mm 1 mps 761 mmHg 92%

2 Noviembre, Lunes

Tiempo Temperatura Precipitaciones Viento Presión Humedad
00:00 +12°C° 0 mm 1 mps 761 mmHg 92%
01:00 +12°C° 0 mm 2 mps 761 mmHg 92%
02:00 +12°C° 0 mm 2 mps 761 mmHg 91%
03:00 +10°C° 0 mm 3 mps 761 mmHg 90%
04:00 +10°C° 0 mm 3 mps 761 mmHg 84%
05:00 +10°C° 0 mm 3 mps 761 mmHg 77%
06:00 +10°C° 0 mm 3 mps 761 mmHg 71%
07:00 +11°C° 0 mm 3 mps 762 mmHg 63%
08:00 +11°C° 0 mm 4 mps 762 mmHg 55%
09:00 +12°C° 0 mm 4 mps 762 mmHg 47%
10:00 +14°C° 0 mm 4 mps 762 mmHg 44%
11:00 +15°C° 0 mm 4 mps 762 mmHg 42%
12:00 +17°C° 0 mm 4 mps 762 mmHg 39%
13:00 +18°C° 0 mm 4 mps 762 mmHg 37%
14:00 +17°C° 0 mm 5 mps 762 mmHg 36%
15:00 +17°C° 0 mm 5 mps 762 mmHg 34%
16:00 +16°C° 0 mm 5 mps 763 mmHg 37%
17:00 +15°C° 0 mm 4 mps 763 mmHg 40%
18:00 +14°C° 0 mm 4 mps 763 mmHg 44%
19:00 +13°C° 0 mm 4 mps 763 mmHg 44%
20:00 +13°C° 0 mm 4 mps 763 mmHg 45%
21:00 +12°C° 0 mm 4 mps 763 mmHg 46%
22:00 +12°C° 0 mm 3 mps 763 mmHg 47%
23:00 +12°C° 0 mm 3 mps 764 mmHg 47%

3 Noviembre, Martes

Tiempo Temperatura Precipitaciones Viento Presión Humedad
00:00 +11°C° 0 mm 3 mps 764 mmHg 47%
01:00 +11°C° 0 mm 3 mps 764 mmHg 48%
02:00 +10°C° 0 mm 4 mps 764 mmHg 49%
03:00 +10°C° 0 mm 4 mps 764 mmHg 50%
04:00 +10°C° 0 mm 4 mps 764 mmHg 51%
05:00 +9°C° 0 mm 5 mps 765 mmHg 53%
06:00 +8°C° 0 mm 5 mps 765 mmHg 54%
07:00 +9°C° 0 mm 5 mps 765 mmHg 52%
08:00 +10°C° 0 mm 6 mps 765 mmHg 51%
09:00 +11°C° 0 mm 6 mps 765 mmHg 49%
10:00 +13°C° 0 mm 6 mps 765 mmHg 43%
11:00 +15°C° 0 mm 7 mps 765 mmHg 38%
12:00 +17°C° 0 mm 7 mps 765 mmHg 33%
13:00 +17°C° 0 mm 7 mps 765 mmHg 31%
14:00 +18°C° 0 mm 7 mps 765 mmHg 30%
15:00 +18°C° 0 mm 7 mps 765 mmHg 28%
16:00 +17°C° 0 mm 7 mps 764 mmHg 30%
17:00 +16°C° 0 mm 6 mps 764 mmHg 32%
18:00 +15°C° 0 mm 6 mps 764 mmHg 34%
19:00 +14°C° 0 mm 6 mps 764 mmHg 35%
20:00 +14°C° 0 mm 6 mps 764 mmHg 35%
21:00 +14°C° 0 mm 6 mps 764 mmHg 36%
22:00 +13°C° 0 mm 6 mps 764 mmHg 37%
23:00 +13°C° 0 mm 6 mps 764 mmHg 38%
Mostrar más

Necesitamos Su Consentimiento

Meteoprog y nuestros Proveedores de Servicios pueden almacenar y acceder a sus datos personales como cookies, identificadores de dispositivo u otras tecnologías similares de su dispositivo y procesar dichos datos para personalizar contenido y anuncios, además de ofrecer funciones de redes sociales y analizar el tráfico.

  • Almacenar y/o acceder a información en su dispositivo

    Se puede almacenar o acceder a cookies, identificadores de dispositivo u otra información de su dispositivo para los fines anteriormente indicados.

  • Anuncios y contenido personalizados, medición de anuncios y contenido, percepciones del público, y desarrollo de productos

    Los anuncios y el contenido pueden personalizarse en base a su perfil. Se pueden añadir más datos para personalizar mejor los anuncios y contenidos. Se puede medir el rendimiento de los anuncios y contenidos. Se puede obtener la percepción sobre el público que ha visto los anuncios y contenidos. Dichos datos pueden usarse para desarrollar o mejorar la experiencia del usuario, sistemas y software.

Al hacer clic en ‘Estoy De Acuerdo’ usted permitirá el uso de las cookies, identificadores de dispositivo, balizas web u otras tecnologías similares indicadas. Su configuración puede cambiarse desde el navegador de su dispositivo.

Para ciertos fines, los intereses legítimos pueden ser considerados por encima del consentimiento. Puede leer más sobre ello en nuestra Política de Privacidad y Cookies.